Flag for U.S.A. Weather past 2 weeks in Corvallis, Oregon, U.S.A.

Now
37 °F

Passing clouds.


Feels Like: 37 °F
Forecast: 40 / 59 °F
Wind: No wind

Location: Corvallis Municipal

Current Time: Apr 26, 2015 at 5:29:02 AM

Latest Report: Apr 26, 2015 at 4:55 AM


Visibility: 10 mi

Pressure: 30.15 "Hg

Humidity: 93%

Dew point: 36 °F

Location of CorvallisLocation

Historic Weather in Corvallis — Graph

°F

Corvallis temperature yesterday

Maximum temperature yesterday: 59 °F (at 3:55 PM)
Minimum temperature yesterday: 39 °F (at 11:15 PM)
Average temperature yesterday: 50 °F

Past Weeks' High & Low Weather Summary

 TemperatureHumidityPressure
High81 °F (Apr 20, 3:55 PM)100% (Apr 12, 8:35 AM)30.58 "Hg (Apr 12, 8:35 AM)
Low34 °F (Apr 15, 5:35 AM)28% (Apr 20, 5:15 PM)29.82 "Hg (Apr 20, 5:15 PM)
Average50 °F73%30.13 "Hg
* Reported Apr 11 4:15 AM — Apr 26 4:35 AM, Corvallis, Weather by CustomWeather, © 2015

Note: Actual official high and low records may vary slightly from our data, if they occured in-between our weather recording intervals... More about our weather records

Advertising

Corvallis weather history for previous 24 hours

 ConditionsComfort  
Time TempWeatherWind HumidityBarometerVisibility
4:35 AM
Sun, Apr 26
39 °FPassing clouds.No wind87%30.15 "Hg10 mi
4:15 AM39 °FPassing clouds.3 mph87%30.15 "Hg10 mi
3:55 AM37 °FPassing clouds.No wind93%30.15 "Hg10 mi
3:35 AM37 °FClear.3 mph93%30.14 "Hg10 mi
3:15 AM37 °FPassing clouds.No wind93%30.15 "Hg10 mi
2:55 AM37 °FClear.No wind93%30.14 "Hg10 mi
2:35 AM37 °FClear.3 mph93%30.14 "Hg10 mi
2:15 AM37 °FClear.3 mph93%30.14 "Hg10 mi
1:55 AM37 °FClear.No wind93%30.14 "Hg10 mi
1:35 AM37 °FClear.5 mph93%30.14 "Hg10 mi
1:15 AM37 °FClear.3 mph93%30.14 "Hg10 mi
12:55 AM39 °FClear.No wind87%30.13 "Hg10 mi
12:35 AM39 °FClear.No wind87%30.13 "Hg10 mi
12:15 AM39 °FClear.No wind93%30.13 "Hg10 mi
11:55 PM
Sat, Apr 25
39 °FClear.5 mph87%30.13 "Hg10 mi
11:35 PM39 °FClear.3 mph93%30.12 "Hg10 mi
11:15 PM39 °FClear.3 mph87%30.12 "Hg10 mi
10:55 PM43 °FClear.5 mph81%30.11 "Hg10 mi
10:35 PM45 °FClear.7 mph76%30.10 "Hg10 mi
10:15 PM45 °FClear.7 mph81%30.10 "Hg10 mi
9:55 PM45 °FClear.7 mph76%30.10 "Hg10 mi
9:35 PM46 °FClear.8 mph76%30.08 "Hg10 mi
9:15 PM46 °FClear.8 mph76%30.08 "Hg10 mi
8:15 PM50 °FSunny.8 mph67%30.06 "Hg10 mi
7:55 PM52 °FSunny.6 mph62%30.06 "Hg10 mi
7:35 PM54 °FPassing clouds.3 mph77%30.05 "Hg10 mi
7:15 PM57 °FPartly sunny.5 mph63%30.04 "Hg10 mi
6:55 PM55 °FMostly cloudy.6 mph72%30.04 "Hg10 mi
6:35 PM54 °FPartly sunny.6 mph72%30.04 "Hg10 mi
6:15 PM55 °FBroken clouds.6 mph63%30.03 "Hg10 mi
5:55 PM55 °FOvercast.6 mph63%30.03 "Hg10 mi
5:35 PM55 °FMostly cloudy.6 mph63%30.03 "Hg10 mi
5:15 PM55 °FCloudy.7 mph63%30.03 "Hg10 mi
4:55 PM55 °FMostly cloudy.9 mph63%30.02 "Hg10 mi
4:35 PM57 °FMore clouds than sun.6 mph59%30.02 "Hg10 mi
4:15 PM57 °FPartly sunny.6 mph63%30.02 "Hg10 mi
3:55 PM59 °FPartly sunny.7 mph59%30.02 "Hg10 mi
3:35 PM55 °FPartly sunny.7 mph63%30.02 "Hg10 mi
3:15 PM57 °FBroken clouds.6 mph59%30.02 "Hg10 mi
2:15 PM55 °FBroken clouds.7 mph72%30.03 "Hg10 mi
1:55 PM55 °FPassing clouds.3 mph72%30.02 "Hg10 mi
1:35 PM52 °FMostly cloudy.5 mph82%30.03 "Hg10 mi
1:15 PM48 °FMostly cloudy.5 mph82%30.04 "Hg10 mi
12:55 PM54 °FBroken clouds.10 mph63%30.03 "Hg10 mi
12:35 PM57 °FScattered clouds.6 mph51%30.01 "Hg10 mi
12:15 PM57 °FPartly sunny.3 mph51%30.01 "Hg10 mi
11:55 AM57 °FBroken clouds.5 mph59%30.01 "Hg10 mi
11:35 AM57 °FPartly sunny.No wind59%30.02 "Hg10 mi
11:15 AM57 °FBroken clouds.No wind59%30.01 "Hg10 mi
10:55 AM55 °FBroken clouds.3 mph59%30.01 "Hg10 mi
10:35 AM55 °FScattered clouds.No wind63%30.01 "Hg10 mi
10:15 AM54 °FSunny.No wind63%30.01 "Hg10 mi
9:55 AM54 °FSunny.3 mph72%30.01 "Hg10 mi
9:35 AM52 °FSunny.No wind72%30.00 "Hg10 mi
9:15 AM48 °FSunny.No wind87%30.00 "Hg10 mi
8:55 AM48 °FSunny.No wind82%29.99 "Hg10 mi
8:35 AM46 °FPassing clouds.No wind87%29.99 "Hg10 mi
8:15 AM46 °FMore clouds than sun.No wind87%29.98 "Hg10 mi
7:55 AM46 °FMostly cloudy.No wind87%29.98 "Hg10 mi
7:35 AM46 °FCloudy.No wind93%29.98 "Hg10 mi
7:15 AM46 °FMostly cloudy.3 mph87%29.97 "Hg10 mi
6:55 AM46 °FPartly cloudy.5 mph87%29.97 "Hg10 mi
6:35 AM46 °FMostly cloudy.5 mph87%29.96 "Hg10 mi
6:15 AM46 °FPartly cloudy.3 mph87%29.96 "Hg8 mi
5:55 AM45 °FOvercast.5 mph93%29.96 "Hg10 mi
5:35 AM46 °FMostly cloudy.No wind87%29.96 "Hg10 mi
5:15 AM46 °FMostly cloudy.No wind87%29.95 "Hg10 mi
Weather by CustomWeather, © 2015

See weather overviewHow to use our weather pages